• Em Portugal
  • Lista de países
  • Para 7 dias
  • Temperatura da água
  • Mapas de satélite
  • Mapa do tempo
  • Widgets de tempo
  • user-avatar
    Iniciar Sessão

    Previsão horária em Tatarenkova

    Hoje, 22 Setembro, Sábado

    Tempo Temperatura Precipitação Vento Pressão Humidade
    00:00 +17°C° 0 mm 2 m/s 746 mmHg 77%
    01:00 +17°C° 0 mm 2 m/s 745 mmHg 78%
    02:00 +17°C° 0 mm 2 m/s 745 mmHg 75%
    03:00 +16°C° 0 mm 2 m/s 745 mmHg 75%
    04:00 +16°C° 0 mm 2 m/s 745 mmHg 75%
    05:00 +16°C° 0 mm 2 m/s 745 mmHg 75%
    06:00 +17°C° 0 mm 3 m/s 745 mmHg 72%
    07:00 +19°C° 0 mm 3 m/s 744 mmHg 68%
    08:00 +20°C° 0 mm 4 m/s 744 mmHg 63%
    09:00 +21°C° 0 mm 4 m/s 744 mmHg 59%
    10:00 +23°C° 0 mm 5 m/s 744 mmHg 56%
    11:00 +25°C° 0 mm 5 m/s 744 mmHg 52%
    12:00 +26°C° 0 mm 5 m/s 743 mmHg 50%
    13:00 +26°C° 0 mm 6 m/s 743 mmHg 49%
    14:00 +27°C° 0 mm 5 m/s 742 mmHg 47%
    15:00 +26°C° 0 mm 5 m/s 742 mmHg 52%
    16:00 +25°C° 0 mm 4 m/s 741 mmHg 56%
    17:00 +23°C° 0 mm 4 m/s 741 mmHg 61%
    18:00 +22°C° 0 mm 4 m/s 740 mmHg 61%
    19:00 +21°C° 0 mm 4 m/s 740 mmHg 60%
    20:00 +20°C° 0 mm 5 m/s 740 mmHg 60%
    21:00 +20°C° 0 mm 5 m/s 739 mmHg 58%
    22:00 +20°C° 0 mm 5 m/s 739 mmHg 56%
    23:00 +19°C° 0 mm 5 m/s 738 mmHg 54%

    Amanhã, 23 Setembro, Domingo

    Tempo Temperatura Precipitação Vento Pressão Humidade
    00:00 +19°C° 0 mm 5 m/s 738 mmHg 55%
    01:00 +17°C° 0 mm 5 m/s 738 mmHg 57%
    02:00 +17°C° 0 mm 5 m/s 738 mmHg 58%
    03:00 +16°C° 0.4 mm 5 m/s 738 mmHg 66%
    04:00 +14°C° 0.4 mm 5 m/s 738 mmHg 75%
    05:00 +13°C° 0.4 mm 6 m/s 738 mmHg 83%
    06:00 +10°C° 1.1 mm 5 m/s 738 mmHg 84%
    07:00 +9°C° 1.1 mm 5 m/s 738 mmHg 86%
    08:00 +8°C° 1.1 mm 5 m/s 739 mmHg 87%
    09:00 +9°C° 0.1 mm 5 m/s 739 mmHg 85%
    10:00 +9°C° 0.1 mm 5 m/s 740 mmHg 82%
    11:00 +11°C° 0.1 mm 4 m/s 740 mmHg 79%
    12:00 +12°C° 0 mm 4 m/s 740 mmHg 76%
    13:00 +12°C° 0 mm 4 m/s 740 mmHg 72%
    14:00 +13°C° 0 mm 4 m/s 741 mmHg 69%
    15:00 +13°C° 0.1 mm 3 m/s 740 mmHg 71%
    16:00 +13°C° 0.1 mm 3 m/s 740 mmHg 73%
    17:00 +13°C° 0.1 mm 2 m/s 740 mmHg 74%
    18:00 +12°C° 0 mm 2 m/s 740 mmHg 78%
    19:00 +10°C° 0 mm 3 m/s 741 mmHg 82%
    20:00 +9°C° 0 mm 3 m/s 741 mmHg 85%
    21:00 +9°C° 0 mm 3 m/s 741 mmHg 86%
    22:00 +9°C° 0 mm 3 m/s 741 mmHg 88%
    23:00 +8°C° 0 mm 3 m/s 741 mmHg 89%

    Depois de amanhã, 24 Setembro, Segunda-feira

    Tempo Temperatura Precipitação Vento Pressão Humidade
    00:00 +8°C° 0 mm 3 m/s 741 mmHg 89%
    01:00 +8°C° 0 mm 3 m/s 741 mmHg 90%
    02:00 +7°C° 0 mm 3 m/s 741 mmHg 90%
    03:00 +8°C° 0 mm 3 m/s 740 mmHg 88%
    04:00 +8°C° 0 mm 3 m/s 740 mmHg 85%
    05:00 +8°C° 0 mm 3 m/s 740 mmHg 83%
    06:00 +8°C° 0 mm 4 m/s 740 mmHg 80%
    07:00 +10°C° 0 mm 4 m/s 739 mmHg 76%
    08:00 +10°C° 0 mm 5 m/s 739 mmHg 73%
    09:00 +10°C° 0.6 mm 5 m/s 738 mmHg 74%
    10:00 +10°C° 0.6 mm 6 m/s 738 mmHg 76%
    11:00 +10°C° 0.6 mm 7 m/s 737 mmHg 78%
    12:00 +9°C° 1.7 mm 7 m/s 736 mmHg 81%
    13:00 +9°C° 1.7 mm 8 m/s 734 mmHg 84%
    14:00 +8°C° 1.7 mm 9 m/s 733 mmHg 87%
    15:00 +8°C° 1.8 mm 9 m/s 732 mmHg 88%
    16:00 +9°C° 1.8 mm 10 m/s 730 mmHg 88%
    17:00 +11°C° 1.8 mm 10 m/s 728 mmHg 89%
    18:00 +11°C° 0.8 mm 10 m/s 728 mmHg 88%
    19:00 +11°C° 0.8 mm 10 m/s 727 mmHg 87%
    20:00 +11°C° 0.8 mm 10 m/s 726 mmHg 86%
    21:00 +10°C° 0 mm 9 m/s 727 mmHg 85%
    22:00 +8°C° 0 mm 9 m/s 727 mmHg 84%
    23:00 +7°C° 0 mm 9 m/s 728 mmHg 84%

    25 Setembro, Terça-feira

    Tempo Temperatura Precipitação Vento Pressão Humidade
    00:00 +7°C° 0 mm 8 m/s 729 mmHg 83%
    01:00 +6°C° 0 mm 8 m/s 730 mmHg 83%
    02:00 +6°C° 0 mm 7 m/s 730 mmHg 83%
    03:00 +6°C° 0.1 mm 7 m/s 731 mmHg 84%
    04:00 +6°C° 0.1 mm 7 m/s 731 mmHg 84%
    05:00 +6°C° 0.1 mm 7 m/s 732 mmHg 85%
    06:00 +6°C° 0 mm 8 m/s 732 mmHg 83%
    07:00 +6°C° 0 mm 8 m/s 733 mmHg 81%
    08:00 +6°C° 0 mm 8 m/s 734 mmHg 80%
    09:00 +6°C° 0 mm 8 m/s 734 mmHg 79%
    10:00 +6°C° 0 mm 7 m/s 735 mmHg 78%
    11:00 +5°C° 0 mm 7 m/s 736 mmHg 77%
    12:00 +5°C° 0 mm 7 m/s 737 mmHg 77%
    13:00 +5°C° 0 mm 7 m/s 737 mmHg 76%
    14:00 +5°C° 0 mm 7 m/s 738 mmHg 75%
    15:00 +5°C° 0 mm 7 m/s 738 mmHg 75%
    16:00 +5°C° 0 mm 6 m/s 739 mmHg 75%
    17:00 +5°C° 0 mm 6 m/s 739 mmHg 74%
    18:00 +6°C° 0 mm 5 m/s 740 mmHg 76%
    19:00 +5°C° 0 mm 5 m/s 741 mmHg 77%
    20:00 +5°C° 0 mm 4 m/s 741 mmHg 78%
    21:00 +5°C° 0 mm 4 m/s 742 mmHg 78%
    22:00 +3°C° 0 mm 5 m/s 742 mmHg 78%
    23:00 +3°C° 0 mm 5 m/s 743 mmHg 78%

    26 Setembro, Quarta-feira

    Tempo Temperatura Precipitação Vento Pressão Humidade
    00:00 +3°C° 0 mm 5 m/s 743 mmHg 79%
    01:00 +2°C° 0 mm 5 m/s 744 mmHg 79%
    02:00 +2°C° 0 mm 5 m/s 745 mmHg 80%
    03:00 +2°C° 0 mm 5 m/s 745 mmHg 80%
    04:00 +1°C° 0 mm 4 m/s 746 mmHg 80%
    05:00 +1°C° 0 mm 4 m/s 747 mmHg 80%
    06:00 +1°C° 0 mm 5 m/s 747 mmHg 76%
    07:00 +2°C° 0 mm 5 m/s 748 mmHg 72%
    08:00 +3°C° 0 mm 5 m/s 748 mmHg 68%
    09:00 +5°C° 0 mm 5 m/s 748 mmHg 63%
    10:00 +7°C° 0 mm 5 m/s 749 mmHg 57%
    11:00 +8°C° 0 mm 5 m/s 749 mmHg 52%
    12:00 +9°C° 0 mm 6 m/s 749 mmHg 51%
    13:00 +9°C° 0 mm 6 m/s 748 mmHg 50%
    14:00 +10°C° 0 mm 6 m/s 748 mmHg 50%
    15:00 +9°C° 0 mm 6 m/s 748 mmHg 54%
    16:00 +8°C° 0 mm 5 m/s 748 mmHg 59%
    17:00 +8°C° 0 mm 4 m/s 747 mmHg 64%
    18:00 +7°C° 0 mm 5 m/s 747 mmHg 65%
    19:00 +7°C° 0 mm 5 m/s 747 mmHg 67%
    20:00 +7°C° 0 mm 6 m/s 747 mmHg 69%
    21:00 +7°C° 0.1 mm 6 m/s 746 mmHg 71%
    22:00 +7°C° 0.1 mm 6 m/s 746 mmHg 74%
    23:00 +6°C° 0.1 mm 7 m/s 745 mmHg 77%

    27 Setembro, Quinta-feira

    Tempo Temperatura Precipitação Vento Pressão Humidade
    00:00 +6°C° 0.3 mm 7 m/s 745 mmHg 78%
    01:00 +5°C° 0.3 mm 8 m/s 744 mmHg 79%
    02:00 +5°C° 0.3 mm 8 m/s 743 mmHg 80%
    03:00 +5°C° 0.2 mm 8 m/s 743 mmHg 79%
    04:00 +5°C° 0.2 mm 9 m/s 742 mmHg 79%
    05:00 +5°C° 0.2 mm 9 m/s 741 mmHg 78%
    06:00 +5°C° 0.2 mm 9 m/s 741 mmHg 79%
    07:00 +5°C° 0.2 mm 9 m/s 741 mmHg 80%
    08:00 +5°C° 0.2 mm 9 m/s 740 mmHg 81%
    09:00 +6°C° 0.1 mm 9 m/s 740 mmHg 81%
    10:00 +6°C° 0.1 mm 9 m/s 740 mmHg 81%
    11:00 +7°C° 0.1 mm 8 m/s 740 mmHg 81%
    12:00 +7°C° 0.4 mm 8 m/s 739 mmHg 83%
    13:00 +7°C° 0.4 mm 8 m/s 739 mmHg 84%
    14:00 +7°C° 0.4 mm 8 m/s 738 mmHg 86%
    15:00 +7°C° 0.4 mm 8 m/s 738 mmHg 87%
    16:00 +7°C° 0.4 mm 8 m/s 738 mmHg 87%
    17:00 +7°C° 0.4 mm 8 m/s 737 mmHg 88%
    18:00 +7°C° 0.3 mm 8 m/s 737 mmHg 88%
    19:00 +9°C° 0.3 mm 8 m/s 737 mmHg 88%
    20:00 +9°C° 0.3 mm 7 m/s 736 mmHg 88%
    21:00 +9°C° 0.2 mm 8 m/s 736 mmHg 88%
    22:00 +10°C° 0.2 mm 8 m/s 736 mmHg 87%
    23:00 +10°C° 0.2 mm 9 m/s 736 mmHg 87%
    Mostrar mais